Current Weather Conditions: station 62114

sailwx.info

See reports from other nearby stations

no recent reports received from weather station ID 62114

Tides Pressure Air temp Water temp Dewpoint Dewpoint depression Visibility Wind speed Wind direction Waves Ship positions
date/time (UTC)wind fromknots sea level pressurealtimeterstation pressurevisibilityair tempwater tempwave heightnotes
2017-Jan-18 08:00 250 22 9.3
2017-Jan-18 07:00 260 21 9.3
2017-Jan-18 06:00 260 18 9.2
2017-Jan-18 05:00 240 13 8.9
2017-Jan-18 04:00 240 14 9.0
2017-Jan-18 03:00 250 13 9.1
2017-Jan-18 02:00 250 14 9.5
2017-Jan-18 01:00 250 12 9.8
2017-Jan-18 00:00 250 13 9.7
2017-Jan-17 23:00 220 13 9.6
2017-Jan-17 22:00 220 13 9.4
2017-Jan-17 21:00 210 13 10.0
2017-Jan-17 20:00 220 12 9.5
2017-Jan-17 19:00 270 14 9.7
2017-Jan-17 18:00 260 11 9.5
2017-Jan-17 17:00 240 9 9.3
2017-Jan-17 16:00 280 6 9.7
2017-Jan-17 15:00 270 7 9.4
2017-Jan-17 14:00 280 9 9.4
2017-Jan-17 13:00 270 11 9.5
2017-Jan-17 12:00 260 13 9.4
2017-Jan-17 11:00 250 13 9.0
2017-Jan-17 10:00 230 13 8.8
2017-Jan-17 09:00 230 13 8.8
2017-Jan-17 08:00 220 15 8.5
2017-Jan-17 07:00 210 15 8.5
2017-Jan-17 06:00 210 15 8.4
2017-Jan-17 05:00 210 17 8.3
2017-Jan-17 04:00 200 17 8.2
2017-Jan-17 03:00 210 17 8.2
2017-Jan-17 02:00 200 17 8.1
2017-Jan-17 01:00 200 20 8.0
2017-Jan-17 00:00 200 19 7.9
2017-Jan-16 23:00 200 19 8.3
2017-Jan-16 22:00 210 18 8.3
2017-Jan-16 21:00 210 14 8.3
2017-Jan-16 20:00 220 13 8.2
2017-Jan-16 19:00 210 13 8.3
2017-Jan-16 18:00 220 11 8.2
2017-Jan-16 17:00 220 8 8.0
2017-Jan-16 16:00 200 14 7.8
2017-Jan-16 15:00 200 15 7.5
2017-Jan-16 14:00 190 18 7.2
2017-Jan-16 13:00 190 20 7.1
2017-Jan-16 12:00 190 20 6.8
2017-Jan-16 11:00 190 20 6.6
2017-Jan-16 10:00 180 20 6.2